sat.trackr.live / text

‹ back to catalog

COSMOS 2407

NORAD 28380 · 2004-028A

PAYLOAD ACTIVE UNKNOWN

§ Identity

Operator
Country
CIS
Launch date
2004-07-22
Launch site
PLMSC
Launch vehicle
Mass (kg)
RCS (m²)
1.85

Purposes: nav

External: N2YO · Heavens-Above · Gunter

§ Orbital elements

Epoch: 2026-05-25T03:44:52.134144Z

Period
104.63 min
Inclination
82.9597°
Eccentricity
0.0038321
Mean motion
13.76332643 rev/d
Perigee alt
948.7 km
Apogee alt
1,005.1 km
Semi-major
7,355.1 km
B*
5.1952e-5
RAAN
91.8904°
Arg perigee
318.5619°
Mean anomaly
53.0087°
Rev number
9,671

§ Raw data

COSMOS 24071 28380U 04028A   26145.15615896  .00000066  00000+0  51952-4 0  99912 28380  82.9597  91.8904 0038321 318.5619  53.0087 13.76332643 96718

JSON: /api/v1/satellites/28380 · /tle

For live sub-satellite position, see the globe view (requires WebGL).

§ Visibility from observer

Set your observer location to see the next 7 days of passes ≥ 10°. The values pass through the URL so the page stays shareable.

No JS? Fill the form by hand. The geolocation button needs JavaScript.

§ Radio — SatNOGS DB

ModeDescriptionDownlinkUplink
CW Mode U Tracking Beacon 399.920 MHz
FSK Mode V 149.970 MHz

2 transmitters · refreshed weekly from db.satnogs.org